Weather History for KBIV - February, 2014

Change the Weather History Date:

Friday, February 28, 2014

  Actual Average Record
Temperature  
Mean Temperature 6 °F 32 °F  
Max Temperature 20 °F 39 °F 65 °F (1976)
Min Temperature -9 °F 24 °F -9 °F (2014)
Degree Days  
Heating Degree Days 59 33  
Month to date heating degree days 1322 1027  
Since 1 July heating degree days 5158 4500  
Cooling Degree Days 0 0  
Month to date cooling degree days 0 0  
Year to date cooling degree days 0 0  
Moisture  
Dew Point -3 °F    
Average Humidity 64    
Maximum Humidity 83    
Minimum Humidity 45    
Precipitation  
Precipitation 0.00 in 0.08 in 0.42 in (1950)
Month to date precipitation 1.67 1.80  
Year to date precipitation 3.96 3.89  
Sea Level Pressure  
Sea Level Pressure 30.21 in    
Wind  
Wind Speed 9 mph (SE)    
Max Wind Speed 20 mph    
Max Gust Speed 24 mph    
Visibility 10 miles    
Events      
T = Trace of Precipitation, MM = Missing Value Source: NWS Daily Summary

Daily Weather History Graph

Daily Weather History Graph

Search for Another Location

Airport or City:

Trip Planner

Search our weather history database for the weather conditions in past years. The results will help you decide how hot, cold, wet, or windy it might be!

Date:

Astronomy

Feb. 28, 2014 Rise Set
Actual Time 7:21 AM EST 6:32 PM EST
Civil Twilight 6:53 AM EST 7:01 PM EST
Nautical Twilight 6:20 AM EST 7:33 PM EST
Astronomical Twilight 5:47 AM EST 8:06 PM EST
Moon 6:36 AM EST (2/28) 6:09 PM EST (2/28)
Length of Visible Light 12h 07m
Length of Day
11h 11m
Waning Crescent, 1% of the Moon is Illuminated
Feb 28
Waning Crescent
Mar 1
New
Mar 8
First Quarter
Mar 16
Full
Mar 23
Last Quarter

Hourly Weather History & Observations

Time (EST) Temp. Windchill Dew Point Humidity Pressure Visibility Wind Dir Wind Speed Gust Speed Precip Events Conditions
12:53 AM -7.1 °F -15.9 °F -11.9 °F 79% 30.26 in 10.0 mi SE 3.5 mph - N/A   Clear
1:53 AM -8.0 °F -19.2 °F -11.9 °F 83% 30.27 in 10.0 mi SE 4.6 mph - N/A   Clear
2:53 AM -7.1 °F -18.1 °F -11.9 °F 79% 30.27 in 10.0 mi SE 4.6 mph - N/A   Clear
3:53 AM -5.1 °F -17.6 °F -9.9 °F 80% 30.27 in 10.0 mi SE 5.8 mph - N/A   Overcast
4:53 AM -4.0 °F -16.3 °F -9.9 °F 76% 30.27 in 10.0 mi ESE 5.8 mph - N/A   Overcast
5:53 AM -4.0 °F -20.2 °F -11.0 °F 72% 30.28 in 10.0 mi SE 9.2 mph - N/A   Partly Cloudy
6:53 AM -2.9 °F -19.8 °F -9.9 °F 72% 30.29 in 10.0 mi SE 10.4 mph - N/A   Partly Cloudy
7:53 AM -2.9 °F -17.7 °F -11.0 °F 68% 30.29 in 10.0 mi SE 8.1 mph - N/A   Clear
8:53 AM -0.0 °F -15.3 °F -9.0 °F 66% 30.30 in 10.0 mi SE 9.2 mph - N/A   Clear
9:53 AM 3.9 °F -13.0 °F -6.0 °F 64% 30.31 in 10.0 mi SSE 12.7 mph - N/A   Clear
10:53 AM 9.0 °F -5.1 °F -5.1 °F 53% 30.29 in 10.0 mi SE 10.4 mph - N/A   Clear
11:53 AM 12.0 °F -2.7 °F -2.9 °F 51% 30.29 in 10.0 mi SE 12.7 mph - N/A   Mostly Cloudy
12:53 PM 14.0 °F -0.8 °F -0.0 °F 54% 30.25 in 10.0 mi SSE 13.8 mph - N/A   Overcast
1:53 PM 15.1 °F 1.1 °F -0.9 °F 49% 30.22 in 10.0 mi ESE 12.7 mph - N/A   Scattered Clouds
2:53 PM 18.0 °F 4.8 °F -0.0 °F 45% 30.17 in 10.0 mi SE 12.7 mph - N/A   Mostly Cloudy
3:53 PM 18.0 °F 4.2 °F -0.9 °F 44% 30.14 in 10.0 mi SE 13.8 mph - N/A   Partly Cloudy
4:53 PM 19.0 °F 6.1 °F 1.9 °F 47% 30.12 in 10.0 mi SE 12.7 mph - N/A   Mostly Cloudy
5:53 PM 19.0 °F 6.1 °F 3.0 °F 50% 30.11 in 10.0 mi SE 12.7 mph - N/A   Overcast
6:53 PM 19.0 °F 6.8 °F 5.0 °F 54% 30.10 in 10.0 mi SE 11.5 mph - N/A   Overcast
7:53 PM 19.0 °F 8.2 °F 6.1 °F 57% 30.10 in 10.0 mi SE 9.2 mph - N/A   Overcast
8:53 PM 19.0 °F 11.1 °F 7.0 °F 59% 30.10 in 10.0 mi ESE 5.8 mph - N/A   Overcast
9:53 PM 19.0 °F 12.3 °F 7.0 °F 59% 30.10 in 10.0 mi ENE 4.6 mph - N/A   Mostly Cloudy
10:53 PM 18.0 °F 7.7 °F 8.1 °F 65% 30.09 in 10.0 mi East 8.1 mph - N/A   Mostly Cloudy
11:53 PM 19.0 °F 6.1 °F 9.0 °F 65% 30.06 in 10.0 mi SSE 12.7 mph - N/A   Overcast